Time,TemperatureF,DewpointF,PressureIn,WindDirection,WindDirectionDegrees,WindSpeedMPH,WindSpeedGustMPH,Humidity,HourlyPrecipIn,Conditions,Clouds,dailyrainin,SoftwareType,DateUTC
2013-01-06 00:06:00,4.5,1.0,30.14,SE,146,0.0,-999.0,84,-99.99,,,0.00,weatherlink.com 1.10,2013-01-06 07:06:00,
2013-01-06 00:21:00,6.4,3.0,30.13,SE,146,2.0,-999.0,85,-99.99,,,0.00,weatherlink.com 1.10,2013-01-06 07:21:00,
2013-01-06 00:36:00,6.2,2.0,30.13,SE,146,2.0,-999.0,82,-99.99,,,0.00,weatherlink.com 1.10,2013-01-06 07:36:00,
2013-01-06 00:51:00,4.7,0.0,30.12,SE,146,0.0,-999.0,80,-99.99,,,0.00,weatherlink.com 1.10,2013-01-06 07:51:00,
2013-01-06 01:06:00,5.0,1.0,30.11,SE,146,0.0,-999.0,82,-99.99,,,0.00,weatherlink.com 1.10,2013-01-06 08:06:00,
2013-01-06 01:21:00,5.8,1.0,30.11,SE,146,0.0,-999.0,82,-99.99,,,0.00,weatherlink.com 1.10,2013-01-06 08:21:00,
2013-01-06 01:36:00,4.6,-1.0,30.11,SE,146,0.0,-999.0,77,-99.99,,,0.00,weatherlink.com 1.10,2013-01-06 08:36:00,
2013-01-06 01:51:00,4.7,1.0,30.10,SE,146,0.0,-999.0,83,-99.99,,,0.00,weatherlink.com 1.10,2013-01-06 08:51:00,
2013-01-06 02:06:00,6.7,2.0,30.09,SE,146,0.0,-999.0,82,-99.99,,,0.00,weatherlink.com 1.10,2013-01-06 09:06:00,
2013-01-06 02:21:00,6.5,1.0,30.09,SE,146,1.0,-999.0,78,-99.99,,,0.00,weatherlink.com 1.10,2013-01-06 09:21:00,
2013-01-06 02:36:00,5.8,1.0,30.09,SE,146,0.0,-999.0,81,-99.99,,,0.00,weatherlink.com 1.10,2013-01-06 09:36:00,
2013-01-06 02:51:00,4.9,1.0,30.08,SE,145,1.0,-999.0,82,-99.99,,,0.00,weatherlink.com 1.10,2013-01-06 09:51:00,
2013-01-06 03:06:00,5.4,0.0,30.07,SE,145,0.0,-999.0,78,-99.99,,,0.00,weatherlink.com 1.10,2013-01-06 10:06:00,
2013-01-06 03:21:00,5.7,0.0,30.07,SE,145,0.0,-999.0,78,-99.99,,,0.00,weatherlink.com 1.10,2013-01-06 10:21:00,
2013-01-06 03:36:00,5.8,1.0,30.06,SE,145,0.0,-999.0,80,-99.99,,,0.00,weatherlink.com 1.10,2013-01-06 10:36:00,
2013-01-06 03:51:00,2.8,-2.0,30.05,SE,145,0.0,-999.0,79,-99.99,,,0.00,weatherlink.com 1.10,2013-01-06 10:51:00,
2013-01-06 04:06:00,3.8,-1.0,30.05,SE,145,0.0,-999.0,82,-99.99,,,0.00,weatherlink.com 1.10,2013-01-06 11:06:00,
2013-01-06 04:21:00,5.0,1.0,30.05,SE,145,0.0,-999.0,82,-99.99,,,0.00,weatherlink.com 1.10,2013-01-06 11:21:00,
2013-01-06 04:36:00,6.2,2.0,30.04,SE,145,0.0,-999.0,83,-99.99,,,0.00,weatherlink.com 1.10,2013-01-06 11:36:00,
2013-01-06 04:51:00,6.8,2.0,30.03,SE,145,0.0,-999.0,82,-99.99,,,0.00,weatherlink.com 1.10,2013-01-06 11:51:00,
2013-01-06 05:06:00,5.7,1.0,30.02,SE,145,0.0,-999.0,79,-99.99,,,0.00,weatherlink.com 1.10,2013-01-06 12:06:00,
2013-01-06 05:21:00,3.5,-2.0,30.01,SE,145,1.0,-999.0,77,-99.99,,,0.00,weatherlink.com 1.10,2013-01-06 12:21:00,
2013-01-06 05:36:00,4.0,0.0,30.00,SE,145,0.0,-999.0,82,-99.99,,,0.00,weatherlink.com 1.10,2013-01-06 12:36:00,
2013-01-06 05:51:00,5.7,2.0,30.00,SE,145,1.0,-999.0,83,-99.99,,,0.00,weatherlink.com 1.10,2013-01-06 12:51:00,
2013-01-06 06:06:00,9.1,6.0,30.00,SE,145,1.0,-999.0,85,-99.99,,,0.00,weatherlink.com 1.10,2013-01-06 13:06:00,
2013-01-06 06:21:00,9.9,4.0,30.00,SE,146,2.0,-999.0,77,-99.99,,,0.00,weatherlink.com 1.10,2013-01-06 13:21:00,
2013-01-06 06:36:00,3.3,-3.0,29.99,SE,146,1.0,-999.0,74,-99.99,,,0.00,weatherlink.com 1.10,2013-01-06 13:36:00,
2013-01-06 06:51:00,3.8,-1.0,29.99,SE,146,0.0,-999.0,82,-99.99,,,0.00,weatherlink.com 1.10,2013-01-06 13:51:00,
2013-01-06 07:06:00,4.7,0.0,29.99,SE,146,0.0,-999.0,82,-99.99,,,0.00,weatherlink.com 1.10,2013-01-06 14:06:00,
2013-01-06 07:21:00,4.8,0.0,30.00,SE,144,3.0,-999.0,80,-99.99,,,0.00,weatherlink.com 1.10,2013-01-06 14:21:00,
2013-01-06 07:36:00,6.0,2.0,30.00,SE,143,0.0,-999.0,83,-99.99,,,0.00,weatherlink.com 1.10,2013-01-06 14:36:00,
2013-01-06 07:51:00,8.1,4.0,29.99,SE,142,1.0,-999.0,83,-99.99,,,0.00,weatherlink.com 1.10,2013-01-06 14:51:00,
2013-01-06 08:06:00,8.5,3.0,29.98,SE,143,4.0,-999.0,78,-99.99,,,0.00,weatherlink.com 1.10,2013-01-06 15:06:00,
2013-01-06 08:21:00,4.4,-1.0,29.99,SE,144,0.0,-999.0,77,-99.99,,,0.00,weatherlink.com 1.10,2013-01-06 15:21:00,
2013-01-06 08:36:00,5.4,1.0,29.98,SE,140,4.0,-999.0,83,-99.99,,,0.00,weatherlink.com 1.10,2013-01-06 15:36:00,
2013-01-06 08:51:00,9.3,5.0,29.98,SE,136,1.0,-999.0,82,-99.99,,,0.00,weatherlink.com 1.10,2013-01-06 15:51:00,
2013-01-06 09:06:00,8.1,2.0,29.98,SE,138,0.0,-999.0,77,-99.99,,,0.00,weatherlink.com 1.10,2013-01-06 16:06:00,
2013-01-06 09:21:00,8.2,4.0,29.98,SE,138,1.0,-999.0,81,-99.99,,,0.00,weatherlink.com 1.10,2013-01-06 16:21:00,
2013-01-06 09:36:00,11.0,7.0,29.98,SE,140,0.0,-999.0,82,-99.99,,,0.00,weatherlink.com 1.10,2013-01-06 16:36:00,
2013-01-06 09:51:00,11.6,6.0,29.98,SE,140,0.0,-999.0,79,-99.99,,,0.00,weatherlink.com 1.10,2013-01-06 16:51:00,
2013-01-06 10:06:00,12.3,8.0,29.97,SE,140,0.0,-999.0,81,-99.99,,,0.00,weatherlink.com 1.10,2013-01-06 17:06:00,
2013-01-06 10:21:00,14.6,10.0,29.97,SE,140,0.0,-999.0,80,-99.99,,,0.00,weatherlink.com 1.10,2013-01-06 17:21:00,
2013-01-06 10:36:00,17.1,10.0,29.96,SE,140,3.0,-999.0,74,-99.99,,,0.00,weatherlink.com 1.10,2013-01-06 17:36:00,
2013-01-06 10:51:00,17.0,10.0,29.95,SE,140,0.0,-999.0,73,-99.99,,,0.00,weatherlink.com 1.10,2013-01-06 17:51:00,
2013-01-06 11:06:00,17.9,11.0,29.95,SE,140,0.0,-999.0,73,-99.99,,,0.00,weatherlink.com 1.10,2013-01-06 18:06:00,
2013-01-06 11:21:00,19.8,12.0,29.94,SE,140,0.0,-999.0,70,-99.99,,,0.00,weatherlink.com 1.10,2013-01-06 18:21:00,
2013-01-06 11:36:00,21.5,12.0,29.93,SE,140,0.0,-999.0,68,-99.99,,,0.00,weatherlink.com 1.10,2013-01-06 18:36:00,
2013-01-06 11:51:00,22.7,13.0,29.91,SE,140,0.0,-999.0,67,-99.99,,,0.00,weatherlink.com 1.10,2013-01-06 18:51:00,
2013-01-06 12:06:00,23.9,14.0,29.89,SE,140,2.0,-999.0,66,-99.99,,,0.00,weatherlink.com 1.10,2013-01-06 19:06:00,
2013-01-06 12:21:00,23.9,14.0,29.86,SSW,211,0.0,-999.0,66,-99.99,,,0.00,weatherlink.com 1.10,2013-01-06 19:21:00,
2013-01-06 12:36:00,25.6,16.0,29.84,South,185,1.0,-999.0,67,-99.99,,,0.00,weatherlink.com 1.10,2013-01-06 19:36:00,
2013-01-06 12:51:00,24.8,15.0,29.83,WSW,257,4.0,-999.0,66,-99.99,,,0.00,weatherlink.com 1.10,2013-01-06 19:51:00,
2013-01-06 13:06:00,24.7,16.0,29.83,WSW,257,0.0,-999.0,69,-99.99,,,0.00,weatherlink.com 1.10,2013-01-06 20:06:00,
2013-01-06 13:21:00,25.7,16.0,29.82,SE,128,4.0,-999.0,66,-99.99,,,0.00,weatherlink.com 1.10,2013-01-06 20:21:00,
2013-01-06 13:36:00,25.9,16.0,29.81,ESE,121,3.0,-999.0,67,-99.99,,,0.00,weatherlink.com 1.10,2013-01-06 20:36:00,
2013-01-06 13:51:00,27.1,18.0,29.80,ESE,110,1.0,-999.0,68,-99.99,,,0.00,weatherlink.com 1.10,2013-01-06 20:51:00,
2013-01-06 14:06:00,29.1,20.0,29.80,ENE,77,1.0,-999.0,69,-99.99,,,0.00,weatherlink.com 1.10,2013-01-06 21:06:00,
2013-01-06 14:21:00,28.1,19.0,29.81,NW,306,4.0,-999.0,68,-99.99,,,0.00,weatherlink.com 1.10,2013-01-06 21:21:00,
2013-01-06 14:36:00,26.9,19.0,29.80,NNW,331,0.0,-999.0,71,-99.99,,,0.00,weatherlink.com 1.10,2013-01-06 21:36:00,
2013-01-06 14:51:00,27.0,19.0,29.80,ENE,74,4.0,-999.0,72,-99.99,,,0.00,weatherlink.com 1.10,2013-01-06 21:51:00,
2013-01-06 15:06:00,27.9,19.0,29.81,NNW,348,6.0,-999.0,70,-99.99,,,0.00,weatherlink.com 1.10,2013-01-06 22:06:00,
2013-01-06 15:21:00,26.7,17.0,29.81,NW,325,3.0,-999.0,68,-99.99,,,0.00,weatherlink.com 1.10,2013-01-06 22:21:00,
2013-01-06 15:36:00,25.4,17.0,29.83,NNW,328,0.0,-999.0,70,-99.99,,,0.00,weatherlink.com 1.10,2013-01-06 22:36:00,
2013-01-06 15:51:00,25.6,17.0,29.84,NNW,328,0.0,-999.0,69,-99.99,,,0.00,weatherlink.com 1.10,2013-01-06 22:51:00,
2013-01-06 16:06:00,25.7,17.0,29.83,NNW,327,1.0,-999.0,70,-99.99,,,0.00,weatherlink.com 1.10,2013-01-06 23:06:00,
2013-01-06 16:21:00,24.0,16.0,29.83,NNW,328,2.0,-999.0,72,-99.99,,,0.00,weatherlink.com 1.10,2013-01-06 23:21:00,
2013-01-06 16:36:00,23.9,16.0,29.82,NNW,328,2.0,-999.0,73,-99.99,,,0.00,weatherlink.com 1.10,2013-01-06 23:36:00,
2013-01-06 16:51:00,23.6,16.0,29.82,NNW,327,2.0,-999.0,72,-99.99,,,0.00,weatherlink.com 1.10,2013-01-06 23:51:00,
2013-01-06 17:06:00,23.5,15.0,29.81,NNW,327,0.0,-999.0,71,-99.99,,,0.00,weatherlink.com 1.10,2013-01-07 00:06:00,
2013-01-06 17:21:00,23.0,15.0,29.81,NNW,327,1.0,-999.0,72,-99.99,,,0.00,weatherlink.com 1.10,2013-01-07 00:21:00,
2013-01-06 17:36:00,22.4,15.0,29.82,NNW,327,0.0,-999.0,72,-99.99,,,0.00,weatherlink.com 1.10,2013-01-07 00:36:00,
2013-01-06 17:51:00,22.2,15.0,29.81,NNW,331,2.0,-999.0,73,-99.99,,,0.00,weatherlink.com 1.10,2013-01-07 00:51:00,
2013-01-06 18:06:00,22.8,15.0,29.82,NNW,338,1.0,-999.0,71,-99.99,,,0.00,weatherlink.com 1.10,2013-01-07 01:06:00,
2013-01-06 18:21:00,22.6,15.0,29.81,NNW,347,3.0,-999.0,72,-99.99,,,0.00,weatherlink.com 1.10,2013-01-07 01:21:00,
2013-01-06 18:36:00,21.9,14.0,29.82,NNW,348,0.0,-999.0,72,-99.99,,,0.00,weatherlink.com 1.10,2013-01-07 01:36:00,
2013-01-06 18:51:00,20.6,14.0,29.82,NNW,348,1.0,-999.0,75,-99.99,,,0.00,weatherlink.com 1.10,2013-01-07 01:51:00,
2013-01-06 19:06:00,19.8,13.0,29.83,NNW,346,1.0,-999.0,76,-99.99,,,0.00,weatherlink.com 1.10,2013-01-07 02:06:00,
2013-01-06 19:21:00,20.3,14.0,29.84,North,349,4.0,-999.0,78,-99.99,,,0.00,weatherlink.com 1.10,2013-01-07 02:21:00,
2013-01-06 19:36:00,20.6,14.0,29.85,North,350,0.0,-999.0,76,-99.99,,,0.00,weatherlink.com 1.10,2013-01-07 02:36:00,
2013-01-06 19:51:00,19.5,13.0,29.85,North,350,0.0,-999.0,75,-99.99,,,0.00,weatherlink.com 1.10,2013-01-07 02:51:00,
2013-01-06 20:06:00,17.1,11.0,29.85,North,350,2.0,-999.0,78,-99.99,,,0.00,weatherlink.com 1.10,2013-01-07 03:06:00,
2013-01-06 20:21:00,14.3,9.0,29.85,ENE,76,3.0,-999.0,80,-99.99,,,0.00,weatherlink.com 1.10,2013-01-07 03:21:00,
2013-01-06 20:36:00,15.2,11.0,29.85,East,82,1.0,-999.0,83,-99.99,,,0.00,weatherlink.com 1.10,2013-01-07 03:36:00,
2013-01-06 20:51:00,15.3,10.0,29.86,East,82,1.0,-999.0,78,-99.99,,,0.00,weatherlink.com 1.10,2013-01-07 03:51:00,
2013-01-06 21:06:00,14.6,10.0,29.85,East,82,1.0,-999.0,81,-99.99,,,0.00,weatherlink.com 1.10,2013-01-07 04:06:00,
2013-01-06 21:21:00,14.9,10.0,29.84,East,82,0.0,-999.0,81,-99.99,,,0.00,weatherlink.com 1.10,2013-01-07 04:21:00,
2013-01-06 21:36:00,14.5,10.0,29.84,East,82,0.0,-999.0,81,-99.99,,,0.00,weatherlink.com 1.10,2013-01-07 04:36:00,
2013-01-06 21:51:00,14.4,9.0,29.83,East,82,0.0,-999.0,80,-99.99,,,0.00,weatherlink.com 1.10,2013-01-07 04:51:00,
2013-01-06 22:06:00,12.1,6.0,29.83,East,82,2.0,-999.0,76,-99.99,,,0.00,weatherlink.com 1.10,2013-01-07 05:06:00,
2013-01-06 22:21:00,12.1,7.0,29.83,East,82,1.0,-999.0,81,-99.99,,,0.00,weatherlink.com 1.10,2013-01-07 05:21:00,
2013-01-06 22:36:00,11.0,7.0,29.84,East,82,0.0,-999.0,83,-99.99,,,0.00,weatherlink.com 1.10,2013-01-07 05:36:00,
2013-01-06 22:51:00,9.5,5.0,29.84,East,82,0.0,-999.0,82,-99.99,,,0.00,weatherlink.com 1.10,2013-01-07 05:51:00,
2013-01-06 23:06:00,9.6,5.0,29.84,East,82,1.0,-999.0,82,-99.99,,,0.00,weatherlink.com 1.10,2013-01-07 06:06:00,
2013-01-06 23:21:00,8.1,3.0,29.85,East,82,0.0,-999.0,78,-99.99,,,0.00,weatherlink.com 1.10,2013-01-07 06:21:00,
2013-01-06 23:36:00,9.2,5.0,29.86,East,82,1.0,-999.0,83,-99.99,,,0.00,weatherlink.com 1.10,2013-01-07 06:36:00,
2013-01-06 23:51:00,9.2,5.0,29.86,East,82,0.0,-999.0,81,-99.99,,,0.00,weatherlink.com 1.10,2013-01-07 06:51:00,